Flag for U.S.A. Weather past 2 weeks in Berkeley, California, U.S.A.

Now
63 °F

Overcast.


Feels Like: 63 °F
Forecast: 60 / 74 °F
Wind: No wind

Location: Metro Oakland International Airport

Current Time: Aug 21, 2014 at 5:46:26 AM

Latest Report: Aug 21, 2014 at 4:53 AM


Visibility: 10 mi

Pressure: 29.90 "Hg

Humidity: 81%

Dew point: 57 °F

Location of BerkeleyLocation

Historic Weather in Berkeley — Graph

°F

Berkeley temperature yesterday

Maximum temperature yesterday: 71 °F (at 12:53 PM)
Minimum temperature yesterday: 63 °F (at 10:53 PM)
Average temperature yesterday: 67 °F

Past Weeks' High & Low Weather Summary

 TemperatureHumidityPressure
High77 °F (Aug 6, 12:53 PM)87% (Aug 15, 12:53 AM)30.06 "Hg (Aug 15, 12:53 AM)
Low59 °F (Aug 9, 5:53 AM)52% (Aug 13, 2:53 PM)29.81 "Hg (Aug 19, 6:53 PM)
Average65 °F73%29.95 "Hg
* Reported Aug 6 4:53 AM — Aug 21 4:53 AM, Berkeley, Weather by CustomWeather, © 2014

Note: Actual official high and low records may vary slightly from our data, if they occured in-between our weather recording intervals... More about our weather records

Advertising

Berkeley weather history for previous 24 hours

 ConditionsComfort  
Time TempWeatherWind HumidityBarometerVisibility
4:53 AM
Aug 21
63 °FOvercast.No wind81%29.90 "Hg10 mi
3:53 AM64 °FOvercast.No wind75%29.91 "Hg10 mi
2:53 AM63 °FOvercast.3 mph81%29.92 "Hg10 mi
1:53 AM63 °FOvercast.3 mph78%29.92 "Hg10 mi
12:53 AM63 °FOvercast.6 mph81%29.92 "Hg10 mi
11:53 PM
Aug 20
63 °FOvercast.5 mph81%29.91 "Hg10 mi
10:53 PM63 °FPassing clouds.3 mph78%29.91 "Hg10 mi
9:53 PM64 °FPassing clouds.6 mph75%29.92 "Hg10 mi
8:53 PM64 °FPassing clouds.9 mph75%29.90 "Hg10 mi
7:53 PM65 °FPassing clouds.13 mph73%29.88 "Hg10 mi
6:53 PM68 °FPassing clouds.13 mph65%29.88 "Hg10 mi
5:53 PM71 °FPassing clouds.12 mph59%29.89 "Hg10 mi
4:53 PM71 °FPassing clouds.14 mph59%29.90 "Hg10 mi
3:53 PM71 °FPassing clouds.12 mph59%29.90 "Hg10 mi
2:53 PM71 °FPassing clouds.14 mph61%29.92 "Hg10 mi
1:53 PM71 °FPassing clouds.15 mph61%29.93 "Hg10 mi
12:53 PM71 °FPartly sunny.13 mph59%29.94 "Hg10 mi
11:53 AM70 °FScattered clouds.13 mph61%29.94 "Hg10 mi
10:53 AM68 °FOvercast.14 mph65%29.94 "Hg10 mi
9:53 AM67 °FOvercast.8 mph66%29.92 "Hg10 mi
8:53 AM66 °FOvercast.14 mph68%29.91 "Hg10 mi
7:53 AM65 °FOvercast.15 mph70%29.90 "Hg10 mi
6:53 AM65 °FOvercast.10 mph73%29.88 "Hg10 mi
5:53 AM65 °FOvercast.12 mph76%29.86 "Hg10 mi
Weather by CustomWeather, © 2014

See weather overviewHow to use our weather pages